Vertical_Velocity
1 2 1 0 -1 1 1 -2 -1 4 -1 8 0 1 3 1 -1 3 -0 1 2 2
2 3 2 -3 -0 -2 3 2 -3 -0 -2 5 1 -1 -2 1 8 6 7 6 3 2
0 2 2 -2 -1 -1 -0 -0 3 12 -1 10 15 -1 -1 -1 2 6 10 20 17 13
-0 0 2 -0 -2 1 3 2 -1 -0 2 -1 5 5 10 18 1 7 4 12 14 6
-1 -2 0 0 -1 1 -2 -2 4 5 7 3 2 11 4 6 18 12 5 2 3 -3
-2 -3 -1 -2 -0 1 -0 -1 -1 2 5 2 9 3 9 12 36 19 11 6 -4 4
-2 -1 -0 -2 -1 -1 1 2 5 3 -1 4 5 8 4 24 12 1 -1 -1 -2 -3
-1 -1 -3 -1 -2 -2 -1 -2 -1 2 1 1 -5 4 9 17 -2 0 1 -2 -1 3
1 -1 -2 -1 -3 -3 -1 -1 -3 -3 -0 -0 1 0 -9 -4 -3 -2 0 2 3 3
-2 -1 -2 -2 -0 -1 -4 -1 -1 0 -1 -2 -1 -2 -2 -2 -3 -2 -2 -1 -0 2
-0 -1 -2 -1 0 -2 -1 -2 -2 -2 -1 -1 1 1 0 0 -0 -0 1 2 1 -0
-1 1 -1 1 -0 -2 -1 -2 -0 -2 -1 -1 -1 -1 -1 2 2 1 0 -0 1 1
2 1 -2 -0 -1 -3 -3 -2 -3 -0 -2 -1 -1 -0 -1 -2 -2 -2 -1 -2 -1 0
-0 0 -2 -2 -2 -1 -2 -2 -3 -3 -3 -3 -3 -2 -2 -2 1 1 0 -1 -1 -3
Height
5674 5675 5674 5672 5672 5672 5674 5678 5680 5683 5687 5692 5695 5700 5705 5710 5713 5717 5721 5724 5726 5729
5669 5670 5669 5668 5667 5668 5669 5672 5675 5674 5678 5683 5688 5694 5699 5703 5708 5711 5714 5717 5719 5722
5664 5665 5664 5664 5663 5663 5664 5664 5663 5664 5668 5676 5681 5687 5691 5696 5700 5704 5707 5710 5713 5715
5658 5659 5659 5660 5659 5661 5661 5659 5656 5655 5659 5667 5672 5679 5684 5691 5695 5698 5700 5703 5706 5708
5652 5654 5655 5655 5656 5657 5656 5656 5652 5650 5653 5659 5666 5672 5679 5684 5688 5691 5694 5697 5699 5700
5646 5648 5650 5651 5651 5653 5654 5654 5654 5650 5652 5655 5661 5666 5673 5678 5682 5685 5688 5690 5691 5694
5641 5643 5644 5646 5646 5648 5650 5651 5652 5651 5650 5653 5656 5660 5666 5672 5675 5679 5682 5685 5688 5688
5636 5638 5639 5641 5642 5643 5644 5647 5648 5649 5651 5652 5654 5658 5662 5667 5670 5674 5678 5680 5681 5683
5631 5634 5635 5637 5639 5640 5641 5643 5645 5647 5650 5652 5654 5657 5662 5664 5667 5670 5672 5674 5676 5677
5625 5629 5631 5634 5636 5637 5637 5640 5641 5644 5647 5649 5651 5654 5657 5660 5663 5665 5666 5667 5668 5669
5618 5622 5625 5630 5632 5633 5633 5636 5638 5640 5642 5644 5646 5649 5651 5654 5656 5657 5658 5658 5659 5659
5610 5616 5621 5625 5625 5627 5629 5631 5633 5635 5638 5639 5641 5643 5645 5647 5648 5649 5650 5651 5652 5652
5603 5608 5614 5618 5619 5622 5624 5626 5628 5630 5632 5634 5636 5637 5639 5640 5642 5643 5645 5644 5644 5643
5597 5601 5605 5609 5612 5615 5618 5620 5622 5625 5627 5628 5629 5630 5632 5633 5634 5634 5633 5633 5632 5630